SCP
0 0 0 0 0 0 0 0 0 0 0 0 0 0 0 0 0 0 0 0 0 0 0 0 1 1 1 1 1 1 1 2 2 3 3 3 3 2 2 2 1 1 1 1
0 0 0 0 0 0 0 0 0 0 0 0 0 0 0 0 0 0 0 0 0 0 0 0 1 1 1 1 1 2 2 2 2 3 4 4 3 3 2 2 1 1 1 1
0 0 0 0 0 0 0 0 0 0 0 0 0 0 0 0 0 0 0 0 0 0 0 1 1 1 1 1 1 2 2 2 3 4 4 4 4 3 3 2 2 1 1 1
0 0 0 0 0 0 0 0 0 0 0 0 0 0 0 0 0 0 0 0 0 0 0 1 1 1 1 1 1 2 2 2 3 3 4 4 4 3 3 2 2 2 1 1
0 0 0 0 0 0 0 0 0 0 0 0 0 0 0 0 0 0 0 0 0 0 0 0 1 1 1 1 1 1 2 2 2 3 3 4 4 3 3 2 2 1 1 1
0 0 0 0 0 0 0 0 0 0 0 0 0 0 0 0 0 0 0 0 0 0 0 0 0 0 0 1 1 1 1 2 2 2 3 3 3 3 2 2 1 1 1 1
0 0 0 0 0 0 0 0 0 0 0 0 0 0 0 0 0 0 0 0 0 0 0 0 0 0 0 0 1 1 1 1 1 2 2 2 2 2 2 1 1 1 1 1
0 0 0 0 0 0 0 0 0 0 0 0 0 0 0 0 0 0 0 0 0 0 0 0 0 0 0 0 0 0 1 1 1 1 1 1 1 1 1 1 1 0 0 0
0 0 0 0 0 0 0 0 0 0 0 0 0 0 0 0 0 0 0 0 0 0 0 0 0 0 0 0 0 0 0 0 0 0 0 0 0 0 0 0 0 0 0 0
0 0 0 0 0 0 0 0 0 0 0 0 0 0 0 0 0 0 0 0 0 0 0 0 0 0 0 0 0 0 0 0 0 0 0 0 0 0 0 0 0 0 0 0
0 0 0 0 0 0 0 0 0 0 0 0 0 0 0 0 0 0 0 0 0 0 0 0 0 0 0 0 0 0 0 0 0 0 0 0 0 0 0 0 0 0 0 0
0 0 0 0 0 0 0 0 0 0 0 0 0 0 0 0 0 0 0 0 0 0 0 0 0 0 0 0 0 0 0 0 0 0 0 0 0 0 0 0 0 0 0 0
0 0 0 0 0 0 0 0 0 0 0 0 0 0 0 0 0 0 0 0 0 0 0 0 0 0 0 0 0 0 0 0 0 0 0 0 0 0 0 0 0 0 0 0
0 0 0 0 0 0 0 0 0 0 0 0 0 0 0 0 0 0 0 0 0 0 0 0 0 0 0 0 0 0 0 0 0 0 0 0 0 0 0 0 0 0 0 0
0 0 0 0 0 0 0 0 0 0 0 0 0 0 0 0 0 0 0 0 0 0 0 0 0 0 0 0 0 0 0 0 0 0 0 0 0 0 0 0 0 0 0 0
0 0 0 0 0 0 0 0 0 0 0 0 0 0 0 0 0 0 0 0 0 0 0 0 0 0 0 0 0 0 0 0 0 0 0 0 0 0 0 0 0 0 0 0
0 0 0 0 0 0 0 0 0 0 0 0 0 0 0 0 0 0 0 0 0 0 0 0 0 0 0 0 0 0 0 0 0 0 0 0 0 0 0 0 0 0 0 0
0 0 0 0 0 0 0 0 0 0 0 0 0 0 0 0 0 0 0 0 0 0 0 0 0 0 0 0 0 0 0 0 0 0 0 0 0 0 0 0 0 0 0 0
0 0 0 0 0 0 0 0 0 0 0 0 0 0 0 0 0 0 0 0 0 0 0 0 0 0 0 0 0 0 0 0 0 0 0 0 0 0 0 0 0 0 0 0
0 0 0 0 0 0 0 0 0 0 0 0 0 0 0 0 0 0 0 0 0 0 0 0 0 0 0 0 0 0 0 0 0 0 0 0 0 0 0 0 0 0 0 0
0 0 0 0 0 0 0 0 0 0 0 0 0 0 0 0 0 0 0 0 0 0 0 0 0 0 0 0 0 0 0 0 0 0 0 0 0 0 0 0 0 0 0 0
0 0 0 0 0 0 0 0 0 0 0 0 0 0 0 0 0 0 0 0 0 0 0 0 0 0 0 0 0 0 0 0 0 0 0 0 0 0 0 0 0 0 0 0
0 0 0 0 0 0 0 0 0 0 0 0 -0 0 0 0 0 0 0 0 0 0 0 0 0 0 0 0 0 0 0 0 0 0 0 0 0 0 0 0 0 0 0 0
0 0 0 0 0 0 0 0 0 0 0 -0 -0 0 0 0 0 0 0 0 0 0 0 0 0 0 0 0 0 0 0 0 0 0 0 0 0 0 0 0 0 0 0 0
0 0 0 0 0 0 0 0 0 0 0 -0 0 0 0 0 0 0 0 0 0 0 0 0 0 0 0 0 0 0 0 0 0 0 0 0 0 0 0 0 0 0 0 0
0 0 0 0 0 0 0 0 0 0 0 0 0 0 0 0 0 0 0 0 0 0 0 0 0 0 0 0 0 0 0 0 0 0 0 0 0 0 0 0 0 0 0 0
Wind_Speed
2 2 4 6 7 9 11 12 12 9 5 6 8 7 1 5 5 5 7 8 10 10 11 11 11 10 10 8 8 8 6 4 5 5 5 5 4 3 3 3 3 3 3 3
2 6 7 7 7 9 12 13 12 9 9 9 10 10 3 6 8 9 10 11 11 11 11 10 10 11 11 10 9 8 8 5 4 5 6 5 5 4 3 3 3 4 4 4
7 7 7 7 8 10 12 10 11 12 13 11 12 10 4 6 10 11 11 11 11 11 12 12 11 10 10 10 9 8 7 6 3 4 5 6 4 4 3 4 3 3 4 5
5 8 8 9 9 11 10 11 13 14 12 9 9 7 5 8 13 15 15 13 13 14 14 11 11 11 11 11 11 10 7 5 3 1 5 8 6 5 5 4 4 3 4 4
8 9 10 10 11 10 10 14 15 15 12 12 10 8 6 11 13 14 14 15 14 14 14 12 11 11 11 11 11 10 9 7 5 2 2 5 4 4 3 3 5 4 3 4
8 7 7 10 12 8 11 15 15 12 8 6 6 5 7 10 14 16 16 15 14 14 13 13 12 10 10 10 10 9 8 7 6 4 3 3 5 5 5 4 4 4 3 2
8 10 9 10 12 10 13 12 5 3 1 3 8 7 7 11 14 15 16 16 15 14 12 12 12 11 10 11 11 9 8 8 6 5 5 4 4 5 5 4 3 3 2 2
1 7 10 9 9 10 11 11 7 6 6 6 6 6 5 11 13 13 14 14 14 14 12 11 11 10 10 11 11 10 9 8 8 7 6 5 4 2 2 3 3 3 3 3
6 7 7 6 6 9 9 9 7 6 6 4 4 6 4 15 17 17 17 17 16 15 13 12 11 10 11 11 11 10 9 8 8 7 6 4 3 2 1 1 2 2 3 4
7 2 6 5 5 8 8 8 5 5 5 4 4 6 8 16 17 17 17 16 15 14 13 12 11 11 10 10 10 10 10 8 7 6 4 4 3 2 1 0 2 3 2 2
8 3 5 5 7 10 10 9 7 4 3 4 4 4 5 9 11 13 14 13 13 13 12 12 11 10 10 10 11 11 11 10 9 8 6 5 4 4 3 2 2 2 2 2
4 5 2 7 6 4 8 8 7 5 5 4 3 3 4 5 7 8 9 10 10 10 10 10 10 10 9 9 9 10 10 10 8 7 7 6 5 5 4 3 2 2 2 2
7 6 1 6 4 4 7 9 7 4 2 4 3 2 2 2 5 6 7 8 8 9 9 9 8 8 8 8 8 8 8 8 7 7 6 6 6 6 5 5 5 4 3 2
5 4 8 6 5 5 6 7 8 6 3 4 4 2 3 4 6 6 6 6 6 7 7 7 6 6 6 6 6 6 6 6 6 7 7 7 6 5 5 5 6 5 5 3
5 3 6 5 3 2 4 5 6 6 5 4 3 3 4 4 4 5 5 6 6 7 7 7 6 5 4 4 5 5 5 6 7 7 8 8 6 5 5 5 5 5 6 6
3 1 1 3 4 1 1 1 2 3 3 3 2 3 3 2 3 5 6 7 7 7 8 7 7 6 5 4 4 4 5 6 6 7 8 8 7 8 7 6 6 6 6 6
2 4 4 1 5 4 2 2 1 1 1 1 2 3 2 3 5 6 7 8 8 8 8 8 8 7 7 6 5 4 5 6 7 7 6 7 8 7 7 8 7 7 6 7
5 4 3 4 3 2 5 4 2 1 1 1 1 2 2 3 2 4 6 7 8 9 8 8 7 7 7 7 6 5 5 6 7 7 7 7 7 8 8 8 8 7 6 5
4 4 5 4 4 2 5 4 3 2 2 2 1 1 2 3 2 5 8 7 8 7 6 6 6 6 6 6 6 6 6 7 7 7 7 7 7 7 7 8 7 6 5 5
2 3 4 4 5 2 6 7 3 2 1 5 3 2 3 5 3 4 7 7 7 6 5 6 6 6 6 6 6 6 6 6 6 6 6 6 5 5 6 7 6 5 5 5
4 5 4 4 4 3 8 7 3 2 5 5 4 3 4 7 5 5 6 6 5 5 5 6 6 5 5 6 5 6 6 5 5 4 5 5 5 5 5 5 5 5 5 5
4 3 2 2 3 3 9 5 1 5 6 5 4 5 5 4 4 5 5 4 5 5 5 6 5 5 4 5 5 4 4 4 3 3 3 4 4 5 6 5 5 6 6 5
2 3 4 4 3 7 5 3 5 4 4 4 4 4 3 3 4 4 5 5 5 5 5 5 6 5 4 4 4 4 3 3 2 2 3 3 4 5 5 6 6 6 6 5
2 3 1 2 3 6 5 3 4 3 4 5 4 3 2 3 4 4 5 5 5 5 5 5 6 6 5 4 3 3 4 3 2 2 2 3 4 5 6 5 5 5 6 6
2 2 2 4 3 5 5 5 5 5 4 4 3 2 2 3 4 4 5 5 4 4 4 4 5 5 5 4 3 3 3 5 3 3 3 4 4 4 4 5 5 5 5 4
4 5 3 0 4 2 5 7 7 7 5 4 3 2 2 1 2 3 4 4 4 4 4 5 5 6 6 5 4 3 3 4 4 4 4 3 2 3 3 4 4 6 5 7
Wind_Direction
226 312 17 10 2 332 315 304 300 306 341 322 304 302 197 108 73 30 23 18 19 11 3 6 354 347 338 333 323 312 293 232 191 178 171 162 166 154 139 140 144 143 126 110
233 49 19 354 335 321 312 308 311 323 347 328 310 302 313 90 65 41 23 16 15 2 357 1 353 353 350 346 336 320 313 282 213 177 166 162 157 153 139 131 123 117 110 96
57 40 3 341 343 342 320 332 335 326 320 301 290 281 308 81 56 39 24 13 8 2 357 359 358 357 352 347 339 326 317 310 289 175 156 147 139 142 149 146 143 139 132 130
61 35 7 351 357 346 318 342 325 309 303 295 293 288 39 56 35 24 12 1 5 1 353 357 360 1 359 355 351 345 337 333 323 203 166 161 162 173 177 158 148 139 128 131
65 33 14 360 347 331 316 310 293 281 276 279 290 285 59 34 21 6 0 354 357 357 351 354 1 1 360 359 359 356 358 359 352 347 167 162 158 152 140 145 146 144 137 136
93 73 42 359 327 324 315 306 285 257 253 268 343 343 42 20 4 355 352 350 354 353 352 354 360 2 360 2 1 2 6 9 9 20 65 114 136 139 148 163 162 160 156 156
127 81 54 15 357 356 343 339 335 351 353 18 19 49 49 14 6 357 348 348 351 352 354 356 359 1 5 5 4 7 14 17 21 37 58 71 111 136 155 161 171 168 156 179
46 78 43 23 12 345 347 1 1 337 338 340 25 61 54 12 4 358 354 349 351 354 353 358 1 4 10 10 7 10 17 21 27 39 52 64 81 97 129 165 175 186 184 194
7 76 63 38 7 5 355 4 338 311 314 326 53 72 23 5 2 1 359 357 357 354 354 2 8 13 17 15 10 11 18 22 27 33 39 44 64 87 99 166 201 203 205 203
342 65 74 47 21 30 13 353 344 345 351 346 41 51 359 351 352 354 357 358 355 356 1 8 13 18 18 15 11 15 18 20 24 27 31 41 35 46 39 275 254 240 214 200
331 319 111 76 38 17 12 14 360 345 9 352 4 42 5 345 342 348 354 358 2 3 10 16 17 18 19 18 18 17 15 19 19 20 26 31 22 16 7 341 301 288 237 205
2 307 89 95 98 51 30 14 8 12 9 14 45 48 12 346 343 350 356 2 7 11 15 17 18 16 17 17 16 15 14 14 14 17 23 21 14 6 351 332 315 302 276 235
342 314 314 143 143 51 32 19 10 6 17 27 40 48 31 10 1 1 5 7 7 11 13 14 12 11 11 13 12 10 11 10 10 16 18 17 17 8 358 347 346 332 315 295
288 4 35 41 45 17 17 17 14 19 34 48 56 52 36 18 6 6 9 11 14 9 8 13 6 6 11 13 9 4 3 5 12 17 15 12 18 9 358 355 353 344 342 331
282 44 72 82 83 29 25 22 24 37 41 52 70 58 35 7 2 4 11 12 17 20 15 11 7 4 10 14 7 6 8 15 23 25 19 11 11 12 7 0 354 353 354 350
309 340 205 191 166 253 322 23 34 44 48 76 88 77 46 13 13 12 20 20 21 19 16 11 8 359 3 16 5 20 20 24 32 31 22 10 16 19 14 11 10 2 359 2
320 317 309 286 144 245 266 129 146 79 57 9 31 63 15 9 19 20 18 17 21 18 16 9 1 359 1 12 17 39 41 34 34 33 30 20 19 16 14 15 13 5 7 12
335 329 293 283 243 285 95 102 108 291 252 177 59 69 18 348 23 47 34 20 21 16 12 3 350 354 2 10 16 32 48 45 37 27 26 26 26 20 17 17 12 7 9 12
334 313 295 310 324 118 137 152 168 251 280 147 139 64 12 306 146 68 43 33 25 16 6 350 338 349 6 4 10 27 37 44 37 27 25 26 28 23 19 16 9 7 8 10
252 261 287 308 312 2 109 117 121 244 216 104 100 60 5 357 67 42 29 32 27 17 3 348 342 356 2 358 11 31 34 39 36 29 28 26 31 34 25 15 7 5 7 8
220 207 235 279 286 84 112 119 162 267 91 87 80 61 36 40 42 24 23 29 27 20 11 357 347 351 349 355 13 34 32 36 36 33 34 29 25 39 42 21 8 10 11 15
307 305 296 290 294 102 134 153 190 82 101 95 83 66 55 39 33 24 15 30 33 21 17 359 338 337 345 1 9 41 34 25 34 37 42 45 46 34 32 28 18 17 15 19
232 327 346 356 54 110 151 119 82 83 103 102 88 76 59 26 27 21 7 27 32 18 13 353 335 333 354 18 11 28 30 7 19 39 56 52 64 61 39 28 26 23 19 21
119 93 286 282 160 153 165 147 125 118 103 98 91 83 47 20 15 13 4 23 22 14 8 351 342 346 356 7 12 40 13 341 354 39 63 73 62 62 55 37 31 34 22 15
322 151 244 252 149 135 171 180 163 146 139 131 122 111 56 16 14 7 0 16 6 360 4 355 348 342 345 359 13 51 16 338 353 33 50 76 85 86 80 69 41 36 50 31
201 191 217 334 115 160 156 168 168 160 165 161 159 146 115 44 16 359 357 359 352 355 9 2 353 343 347 359 8 47 26 342 9 38 33 42 79 89 105 115 94 54 54 48